1395187227947,172.756
1395187287947,172.832
1395187347947,172.726
1395187407947,172.715
1395187467947,172.669
1395187527947,172.826
1395187587947,172.868
1395187647947,172.850
1395187707947,172.957
1395187767947,173.149
1395187827947,172.663
1395187887947,172.888
1395187947947,172.991
1395188007947,172.925
1395188067947,172.707
1395188127947,173.051
1395188187947,172.914
1395188247947,172.845
1395188307947,172.756
1395188367947,172.944
1395188427947,172.762
1395188487947,172.803
1395188547947,172.543
1395188607947,172.862
1395188667947,173.054
1395188727947,172.791
1395188787947,173.076
1395188847947,172.731
1395188907947,172.816
1395188967947,172.864
1395189027947,173.078
1395189087947,172.617
1395189147947,173.052
1395189207947,172.663
1395189267947,173.123
1395189327947,172.869
1395189387947,173.353
1395189447947,173.048
1395189507947,172.900
1395189567947,172.915
1395189627947,172.857
1395189687947,172.763
1395189747947,172.910
1395189807947,173.267
1395189867947,173.058
1395189927947,172.922
1395189987947,172.549
1395190047947,173.125
1395190107947,173.197
1395190167947,173.021
1395190227947,173.483
1395190287947,173.255
1395190347947,173.045
1395190407947,173.158
1395190467947,173.265
1395190527947,173.403
1395190587947,173.558
1395190647947,173.326
1395190707947,173.621
1395190767947,173.648
1395190827958,173.585
1395190887958,173.281
1395190947958,173.521
1395191007959,173.760
1395191067959,173.911
1395191127959,173.420
1395191187959,173.726
1395191247959,173.546
1395191307959,173.786
1395191367959,173.790
1395191427959,174.035
1395191487959,173.924
1395191547959,174.015
1395191607959,174.146
1395191667959,174.474
1395191727959,174.147
1395191787959,174.167
1395191847959,174.293
1395191907959,174.249
1395191967959,174.459
1395192027959,174.397
1395192087959,174.208
1395192147958,174.346
1395192207958,174.528
1395192267958,174.309
1395192327959,174.245
1395192387959,174.229
1395192447959,174.269
1395192507959,174.447
1395192567959,173.934
1395192627959,173.908
1395192687959,174.024
1395192747959,173.633
1395192807959,173.977
1395192867959,174.095
1395192927959,173.630
1395192987959,173.281
1395193047959,173.228
1395193107959,173.317
1395193167959,173.253
1395193227959,173.133
1395193287959,173.017
1395193347959,173.147
1395193407959,173.151
1395193467959,172.996
1395193527958,173.109
1395193587958,172.722
1395193647958,172.896
1395193707959,173.026
1395193767959,172.871
1395193827959,172.956
1395193887959,173.081
1395193947959,172.830
1395194007959,172.694
1395194067959,172.837
1395194127959,172.807
1395194187959,173.007
1395194247959,172.631
1395194307959,172.660
1395194367959,172.639
1395198027982,171.682
1395198087982,171.475
1395198147982,171.567
1395198207982,171.671
1395198267982,171.654
1395198327982,171.695
1395198387982,171.633
1395198447982,171.855
1395198507982,171.416
1395198567982,171.729
1395198627982,171.550
1395198687982,171.810
1395198747982,171.422
1395198807982,171.734
1395198867982,171.652
1395198927982,171.853
1395198987982,171.612
1395199047982,171.806
1395199107982,171.714
1395199167982,171.681
1395199227982,171.718
1395199287982,171.809
1395199347982,171.942
1395199407982,172.207
1395199467982,171.491
1395199527982,171.688
1395199587982,171.897
1395199647982,171.717
1395199707982,171.876
1395199767982,172.144
1395199827982,171.580
1395199887982,172.094
1395199947982,171.741
1395200007982,171.902
1395200067982,171.810
1395200127982,171.923
1395200187982,171.904
1395200247982,171.455
1395200307982,171.862
1395200367982,171.660
1395200427982,171.596
1395200487982,171.553
1395200547982,171.538
1395200607982,171.413
1395200667982,171.497
1395200727982,171.458
1395200787982,171.522
1395200847982,171.672
1395200907982,171.411
1395200967982,171.738
1395201027982,171.776
1395201087982,171.585
1395201147982,171.380
1395201207982,171.611
1395201267982,171.727
1395201327982,171.774
1395201387982,171.996
1395201447982,171.814
1395201507982,171.531
1395201567982,171.442
1395201627993,171.601
1395201687993,171.470
1395201747993,171.681
1395201807993,171.533
1395201867993,171.298
1395201927993,171.432
1395201987993,171.272
1395202047993,171.350
1395202107993,171.387
1395202167993,171.213
1395202227993,171.293
1395202287993,171.416
1395202347993,171.567
1395202407993,171.631
1395202467993,171.712
1395202527993,171.371
1395202587993,171.272
1395202647993,171.241
1395202707993,171.553
1395202767993,171.081
1395202827993,171.204
1395202887993,171.470
1395202947993,171.336
1395203007993,171.883
1395203067993,171.339
1395203127993,171.626
1395203187993,171.299
1395203247993,171.419
1395203307993,171.221
1395203367993,171.292
1395203427993,171.311
1395203487993,171.114
1395203547993,171.253
1395203607993,171.002
1395203667993,171.305
1395203727993,171.088
1395203787993,171.070
1395203847993,170.979
1395203907993,171.132
1395203967993,171.162
1395204027993,171.125
1395204087993,171.310
1395204147993,170.723
1395204207993,171.322
1395204267993,170.651
1395204327993,171.316
1395204387993,171.026
1395204447993,171.189
1395204507993,171.006
1395204567993,171.481
1395204627993,171.116
1395204687993,171.045
1395204747993,171.142
1395204807993,171.055
1395204867993,171.292
1395204927993,171.212
1395204987993,171.321
1395205047993,171.401
1395205107993,171.365
1395205167993,171.069
1395205228004,171.005
1395205288004,171.289
1395205348004,171.594
1395205408004,171.420
1395205468004,171.634
1395205528004,171.134
1395205588004,171.842
1395205648004,171.530
1395205708004,171.303
1395205768004,171.454
1395205828004,171.630
1395205888004,171.636
1395205948004,171.813
1395206008004,171.749
1395206068004,171.508
1395206128004,171.553
1395206188004,171.740
1395206248004,171.407
1395206308004,171.755
1395206368004,171.826
1395206428004,171.519
1395206488004,171.449
1395206548004,171.283
1395206608004,171.381
1395206668004,171.523
1395206728004,171.556
1395206788004,171.444
1395206848004,171.481
1395206908004,171.596
1395206968004,171.568
1395207028004,171.334
1395207088004,171.620
1395207148004,171.637
1395207208004,171.892
1395207268004,171.569
1395207328004,171.525
1395207388004,171.490
1395207448004,171.432
1395207508004,171.616
1395207568004,171.674
1395207628004,171.497
1395207688004,171.559
1395207748004,171.372
1395207808004,171.647
1395207868004,171.534
1395207928004,171.724
1395207988004,171.609
1395208048004,171.757
1395208108004,171.679
1395208168004,171.596
1395208228004,171.681
1395208288004,172.322
1395208348004,171.798
1395208408004,172.090
1395208468004,171.629
1395208528004,171.712
1395208588004,171.938
1395208648004,171.731
1395208708004,171.889
1395208768004,172.289
1395208828016,172.071
1395208888016,172.029
1395208948016,172.216
1395209008016,172.301
1395209068016,172.404
1395209128016,172.468
1395209188016,172.018
1395209248016,172.232
1395209308016,172.281
1395209368016,172.293
1395209428016,172.286
1395209488016,172.543
1395209548016,172.206
1395209608016,172.481
1395209668016,172.569
1395209728016,172.772
1395209788016,172.612
1395209848016,172.724
1395209908016,172.881
1395209968016,172.575
1395210028016,172.493
1395210088016,172.554
1395210148016,172.443
1395210208016,172.003
1395210268016,170.415
1395210328016,167.339
1395221908048,173.642
1395221968048,174.163
1395222028048,174.036
1395222088048,173.586
1395222148048,174.160
1395222208048,173.831
1395222268048,173.890
1395222328048,174.000
1395222388048,173.621
1395222448048,173.625
1395222508048,173.873
1395222568048,173.881
1395222628048,174.049
1395222688048,173.672
1395222748048,173.855
1395222808048,174.089
1395222868048,173.823
1395222928048,173.808
1395222988048,173.848
1395223048048,173.695
1395223108048,173.781
1395223168048,174.059
1395223228059,173.524
1395223288059,173.781
1395223348059,173.830
1395223408059,174.232
1395223468059,173.844
1395223528059,173.871
1395223588059,174.189
1395223648059,173.863
1395223708059,174.186
1395223768059,173.911
1395223828059,173.891
1395223888059,173.904
1395223948059,173.487
1395224008059,173.582
1395224068059,173.611
1395224128059,173.681
1395224188059,173.847
1395224248059,173.811
1395224308059,173.871
1395224368059,174.345
1395224428059,174.283
1395224488059,173.701
1395224548059,173.879
1395224608059,174.219
1395224668059,173.776
1395224728059,173.873
1395224788059,174.236
1395224848059,173.898
1395224908059,174.032
1395224968059,173.881
1395225028059,174.001
1395225088059,173.679
1395225148059,173.748
1395225208059,173.817
1395225268059,173.977
1395225328059,173.983
1395225388059,174.025
1395225448059,174.279
1395225508059,175.030
1395225568059,174.059
1395225628059,174.389
1395225688059,174.202
1395225748059,174.170
1395225808059,174.498
1395225868059,173.971
1395225928059,173.912
1395225988059,174.009
1395226048059,173.855
1395226108059,174.148
1395226168059,173.854
1395226228059,173.850
1395226288059,174.001
1395226348059,174.097
1395226408059,173.945
1395226468059,173.839
1395226528059,173.582
1395226588059,173.691
1395226648059,174.330
1395226708059,173.831
1395226768059,173.922
1395226828070,173.601
1395226888070,174.013
1395226948070,173.713
1395227008070,173.292
1395227068070,173.685
1395227128070,174.018
1395227188070,174.026
1395227248070,173.298
1395227308070,173.846
1395227368070,173.388
1395227428070,173.578
1395227488070,173.656
1395227548070,173.776
1395227608070,173.757
1395227668070,173.683
1395227728070,173.628
1395227788070,173.786
1395227848070,173.582
1395227908070,173.773
1395227968070,173.769
1395228028070,173.688
1395228088070,174.074
1395228148070,174.480
1395228208070,174.253
1395228268070,174.525
1395228328070,173.843
1395228388070,173.961
1395228448070,173.521
1395228508070,173.766
1395228568070,173.607
1395228628070,173.632
1395228688070,173.685
1395228748070,173.315
1395228808070,173.242
1395228868070,173.291
1395228928070,173.423
1395228988070,173.157
1395229048070,173.187
1395229108070,173.265
1395229168070,173.384
1395229228070,172.971
1395229288070,173.411
1395229348070,173.162
1395229408070,173.104
1395229468070,173.003
1395229528070,172.885
1395229588070,172.997
1395229648070,173.126
1395229708070,173.076
1395229768070,173.073
1395229828070,173.085
1395229888070,173.159
1395229948070,173.319
1395230008070,172.767
1395230068070,173.196
1395230128070,173.138
1395230188070,173.212
1395230248070,173.046
1395230308070,172.671
1395230368070,173.300
1395230428082,173.304
1395230488082,173.098
1395230548082,173.107
1395230608082,173.113
1395230668082,173.356
1395230728082,173.610
1395230788082,173.361
1395230848082,173.051
1395230908082,173.407
1395230968082,173.149
1395231028082,173.347
1395231088082,173.203
1395231148082,173.352
1395231208082,173.094
1395231268082,173.548
1395231328082,173.565
1395231388082,173.513
1395231448082,173.399
1395231508082,173.494
1395231568082,173.730
1395231628082,173.896
1395231688082,174.639
1395231748082,174.615
1395231808082,174.844
1395231868082,174.537
1395231928082,174.380
1395231988082,174.419
1395232048082,173.969
1395232108082,173.776
1395232168082,174.219
1395232228082,173.965
1395232288082,173.795
1395232348082,173.932
1395232408082,173.836
1395232468082,174.287
1395232528082,173.880
1395232588082,174.256
1395232648082,174.385
1395232708082,174.446
1395232768082,173.952
1395232828082,174.005
1395232888082,174.162
1395232948082,174.119
1395233008082,173.787
1395233068082,174.105
1395233128082,174.115
1395233188082,174.138
1395233248082,173.880
1395233308082,173.849
1395233368082,174.167
1395233428082,174.285
1395233488082,174.436
1395233548082,174.626
1395233608082,174.520
1395233668082,174.546
1395233728082,174.551
1395233788082,174.554
1395233848082,174.430
1395233908082,174.195
1395233968082,174.305
1395234028093,174.358
1395234088093,174.459
1395234148093,174.655
1395234208093,174.335
1395234268093,174.106
1395234328093,174.243
1395234388093,174.609
1395234448093,174.545
1395234508093,174.330
1395234568093,174.364
1395234628093,174.409
1395234688093,174.781
1395234748093,174.386
1395234808093,174.699
1395234868093,174.324
1395234928093,174.320
1395234988093,174.687
1395235048093,174.568
1395235108093,174.666
1395235168093,174.855
1395235228093,174.789
1395235288093,174.466
1395235348093,174.590
1395235408093,174.805
1395235468093,174.904
1395235528093,174.631
1395235588093,174.908
1395235648093,174.921
1395235708093,175.043
1395235768093,174.995
1395235828093,174.499
1395235888093,175.209
1395235948093,174.736
1395236008093,175.050
1395236068093,175.244
1395236128093,174.796
1395236188093,174.769
1395236248093,175.348
1395236308093,175.004
1395236368093,174.898
1395236428093,175.297
1395236488093,174.891
1395236548093,175.329
1395236608093,175.214
1395236668093,174.943
1395236728093,175.283
1395236788093,175.649
1395236848093,175.260
1395236908093,175.354
1395236968093,175.361
1395237028093,175.321
1395237088093,175.339
1395237148093,175.379
1395237208093,175.201
1395237268093,176.037
1395237328093,175.031
1395237388093,175.433
1395237448093,175.638
1395237508093,175.672
1395237568093,175.577
1395237628104,175.312
1395237688104,175.677
1395237748104,175.655
1395237808104,176.106
1395237868104,175.741
1395237928104,175.632
1395237988104,175.518
1395238048104,175.909
1395238108104,175.912
1395238168104,175.737
1395238228104,175.962
1395238288104,176.035
1395238348104,175.809
1395238408104,175.786
1395238468104,175.822
1395238528104,175.675
1395238588104,175.536
1395238648104,175.651
1395238708104,176.001
1395238768104,176.178
1395238828104,175.982
1395238888104,175.937
1395238948104,176.206
1395239008104,176.031
1395239068104,176.155
1395239128104,175.910
1395239188104,176.041
1395239248104,175.675
1395239308104,175.624
1395239368104,176.098
1395239428104,176.137
1395239488104,175.847
1395239548104,176.024
1395239608104,176.209
1395239668104,176.119
1395239728104,176.107
1395239788104,176.300
1395239848104,176.478
1395239908104,176.334
1395239968104,176.399
1395240028104,176.351
1395240088104,176.381
1395240148104,176.665
1395240208104,176.681
1395240268104,176.413
1395240328104,176.465
1395240388104,176.436
1395240448104,176.007
1395240508104,176.061
1395240568104,176.216
1395240628104,176.145
1395240688104,175.984
1395240748104,176.292
1395240808104,175.928
1395240868104,176.267
1395240928104,176.284
1395240988104,176.545
1395241048104,175.806
1395241108104,176.323
1395241168104,176.272
1395241228115,176.814
1395241288115,175.962
1395241348115,176.131
1395241408115,175.495
1395241468115,176.105
1395241528115,176.213
1395241588115,175.886
1395241648115,175.905
1395241708115,176.146
1395241768115,175.822
1395241828115,176.070
1395241888115,175.490
1395241948115,175.730
1395242008115,175.706
1395242068115,175.554
1395242128115,175.675
1395242188115,175.999
1395242248115,176.075
1395242308115,176.147
1395242368115,175.824
1395242428115,175.959
1395242488115,176.210
1395242548115,175.764
1395242608115,175.796
1395242668115,176.220
1395242728115,176.028
1395242788115,175.499
1395242848115,175.515
1395242908115,175.838
1395242968115,175.674
1395243028115,175.928
1395243088115,175.933
1395243148115,175.960
1395243208115,176.124
1395243268115,176.090
1395243328115,175.962
1395243388115,175.595
1395243448115,175.668
1395243508115,176.208
1395243568115,175.839
1395243628115,175.703
1395243688115,175.872
1395243748115,176.336
1395243808115,175.934
1395243868115,175.807
1395243928115,175.823
1395243988115,175.645
1395244048115,175.954
1395244108115,176.038
1395244168115,176.096
1395244228115,175.983
1395244288115,176.010
1395244348115,176.025
1395244408115,175.953
1395244468115,176.273
1395244528115,175.876
1395244588115,176.151
1395244648115,176.058
1395244708115,175.992
1395244768115,175.971
1395244828135,176.400
1395244888135,175.796
1395244948135,176.240
1395245008135,175.939
1395245068135,175.943
1395245128135,176.302
1395245188135,175.938
1395245248135,176.088
1395245308135,175.764
1395245368135,175.784
1395245428135,175.876
1395245488135,175.888
1395245548135,175.729
1395245608135,176.291
1395245668135,175.733
1395245728135,175.997
1395245788135,175.693
1395245848135,175.891
1395245908135,175.729
1395245968135,175.559
1395246028135,175.711
1395246088135,175.785
1395246148135,176.184
1395246208135,175.777
1395246268135,176.356
1395246328135,176.211
1395246388135,176.055
1395246448135,175.823
1395246508135,175.907
1395246568135,176.041
1395246628135,175.590
1395246688135,175.679
1395246748135,175.682
1395246808135,175.852
1395246868135,175.732
1395246928135,175.956
1395246988135,175.680
1395247048135,175.551
1395247108135,175.718
1395247168135,175.535
1395247228135,175.807
1395247288135,175.479
1395247348135,175.772
1395247408135,175.460
1395247468135,175.562
1395247528135,175.941
1395247588135,175.855
1395247648135,175.693
1395247708135,175.323
1395247768135,175.756
1395247828135,175.354
1395247888135,175.224
1395247948135,175.524
1395248008135,174.977
1395248068135,175.333
1395248128135,175.487
1395248188135,175.135
1395248248135,175.704
1395248308135,175.614
1395248368135,175.545
1395248428147,175.324
1395248488147,175.581
1395248548147,175.197
1395248608147,175.052
1395248668147,174.926
1395248728147,175.171
1395248788147,175.017
1395248848147,175.188
1395248908147,175.497
1395248968147,175.262
1395249028147,175.280
1395249088147,175.057
1395249628147,174.973
1395249688147,174.975
1395249748147,175.152
1395249808147,175.006
1395249868147,175.065
1395249928147,174.890
1395249988147,175.038
1395250048147,174.861
1395250108147,175.352
1395250168147,175.080
1395250228147,174.997
1395250288147,175.380
1395250348147,175.124
1395250408147,175.124
1395250468147,175.368
1395250528147,175.268
1395250588147,174.790
1395250648147,174.986
1395250708147,174.848
1395250768147,174.587
1395250828147,174.815
1395250888147,174.723
1395250948147,174.721
1395251008147,174.714
1395251068147,175.394
1395251128147,175.271
1395251188147,174.985
1395251248147,175.061
1395251308147,174.936
1395251368147,175.100
1395251428147,175.347
1395251488147,175.064
1395251548147,174.945
1395251608147,175.177
1395251668147,174.924
1395251728147,175.605
1395251788147,175.288
1395251848147,175.326
1395251908147,175.214
1395251968147,175.148
1395252028158,175.055
1395252088158,175.385
1395252148158,175.510
1395252208158,175.398
1395252268158,175.509
1395252328158,175.419
1395252388158,175.334
1395252448158,175.715
1395252508158,175.844
1395252568158,175.634
1395252628158,175.713
1395252688158,175.733
1395252748158,175.621
1395252808158,175.709
1395252868158,175.995
1395252928158,175.593
1395252988158,176.166
1395253048158,175.906
1395253108158,175.991
1395253168158,176.152
1395253228158,176.255
1395253288158,175.578
1395253348158,175.924
1395253408158,175.616
1395253468158,175.912
1395253528158,175.798
1395253588158,175.706
1395253648158,175.617
1395253708158,175.885
1395253768158,175.360
1395253828158,175.670
1395253888158,175.494
1395253948158,175.900
1395254008158,175.940
1395254068158,175.639
1395254128158,176.152
1395254188158,175.808
1395254248158,175.481
1395254308158,175.414
1395254368158,175.565
1395254428158,176.111
1395254488158,176.108
1395254548158,176.014
1395254608158,175.867
1395254668158,176.138
1395254728158,176.041
1395254788158,175.998
1395254848158,175.982
1395254908158,175.807
1395254968158,175.441
1395255028158,175.319
1395255088158,175.546
1395255148158,175.776
1395255208158,175.762
1395255268158,175.492
1395255328158,175.820
1395255388158,175.519
1395255448158,175.549
1395255508158,175.902
1395255568158,175.396
1395255628170,175.544
1395255688170,174.664
1395255748170,174.741
1395255808170,175.163
1395255868170,175.537
1395255928170,175.429
1395255988170,175.700
1395256048170,175.674
1395256108170,175.449
1395256168170,175.600
1395256228170,175.820
1395256288170,176.074
1395256348170,175.173
1395256408170,175.473
1395256468170,175.663
1395256528170,175.588
1395256588170,176.001
1395256648170,175.881
1395256708170,175.897
1395256768170,175.979
1395256828170,176.469
1395256888170,176.075
1395256948170,176.392
1395257008170,175.756
1395257068170,176.184
1395257128170,176.230
1395257188170,176.178
1395257248170,176.384
1395257308170,176.251
1395257368170,176.220
1395257428170,176.354
1395257488170,176.098
1395257548170,176.307
1395257608170,176.000
1395257668170,176.173
1395257728170,176.235
1395257788170,176.213
1395257848170,176.062
1395257908170,176.145
1395257968170,176.304
1395258028170,176.165
1395258088170,176.206
1395258148170,176.047
1395258208170,176.168
1395258268170,175.907
1395258328170,176.300
1395258388170,175.887
1395258448170,176.572
1395258508170,175.993
1395258568170,175.871
1395258628170,176.153
1395258688170,176.214
1395258748170,175.941
1395258808170,175.974
1395258868170,176.114
1395258928170,175.938
1395258988170,175.876
1395259048170,175.876
1395259108170,175.804
1395259168170,176.114
1395259228181,175.815
1395259288181,175.822
1395259348181,176.279
1395259408181,175.981
1395259468181,175.464
1395259528181,175.938
1395259588181,175.686
1395259648181,175.921
1395259708181,175.583
1395259768181,175.851
1395259828181,175.402
1395259888181,176.049
1395259948181,175.715
1395260008181,175.798
1395260068181,175.793
1395260128181,175.626
1395260188181,175.699
1395260248181,176.123
1395260308181,175.824
1395260368181,176.031
1395260428181,176.420
1395260488181,175.898
1395260548181,175.724
1395260608181,176.287
1395260668181,175.962
1395260728181,175.779
1395260788181,175.914
1395260848181,176.240
1395260908181,176.025
1395260968181,175.643
1395261028181,175.664
1395261088181,175.216
1395261148181,175.448
1395261208181,175.827
1395261268181,175.464
1395261328181,175.853
1395261388181,175.492
1395261448181,175.581
1395261508181,175.612
1395261568181,175.534
1395261628181,175.288
1395261688181,175.657
1395261748181,175.446
1395261808181,175.688
1395261868181,175.513
1395261928181,175.942
1395261988181,175.780
1395262048181,175.524
1395262108181,175.789
1395262168181,175.552
1395262228181,175.782
1395262288181,175.794
1395262348181,176.144
1395262408181,175.587
1395262468181,175.510
1395262528181,175.721
1395262588181,175.639
1395262648181,175.859
1395262708181,175.754
1395262768181,175.779
1395262828193,175.543
1395262888193,175.927
1395262948193,175.785
1395263008193,175.587
1395263068193,176.173
1395263128193,175.918
1395263188193,175.754
1395263248193,176.057
1395263308193,176.038
1395263368193,176.014
1395263428193,175.921
1395263488193,176.401
1395263548193,176.392
1395263608193,175.410
1395263668193,176.076
1395263728193,176.286
1395263788193,176.158
1395263848193,176.407
1395263908193,176.057
1395263968193,176.251
1395264028193,176.094
1395264088193,176.233
1395264148193,176.074
1395264208193,176.130
1395264268193,176.323
1395264328193,176.243
1395264388193,176.674
1395264448193,176.325
1395264508193,176.643
1395264568193,176.575
1395264628193,176.250
1395264688193,176.336
1395264748193,176.146
1395264808193,176.820
1395264868193,176.208
1395264928193,176.287
1395264988193,176.658
1395265048193,176.372
1395265108193,176.258
1395265168193,176.768
1395265228193,176.321
1395265288193,176.749
1395265348193,176.305
1395265408193,176.984
1395265468193,176.554
1395265528193,176.745
1395265588193,176.851
1395265648193,176.907
1395265708193,176.520
1395265768193,176.993
1395265828193,176.994
1395265888193,176.939
1395265948193,176.396
1395266008193,176.839
1395266068193,177.140
1395266128193,176.771
1395266188193,176.776
1395266248193,176.555
1395266308193,176.743
1395266368193,176.707
1395266428205,176.744
1395266488205,177.217
1395266548205,176.844
1395266608205,177.019
1395266668205,176.526
1395266728205,176.809
1395266788205,176.872
1395266848205,176.635
1395266908205,176.895
1395266968205,176.412
1395267028205,176.640
1395267088205,176.953
1395267148205,176.583
1395267208205,176.650
1395267268205,176.759
1395267328205,176.533
1395267388205,176.937
1395267448205,176.569
1395267508205,176.716
1395267568205,176.386
1395267628205,176.498
1395267688205,176.523
1395267748205,176.583
1395267808205,176.299
1395267868205,176.968
1395267928205,176.556
1395267988205,176.946
1395268048205,176.790
1395268108205,176.745
1395268168205,176.694